map of OUD home
Great Circle Mapper logo
OUD - Airport
Location
City:  Oujda, Morocco
Name:Les Anglades
ICAO / IATA:GMFO / OUD

Details
Type:Airport (Aerodrome, Airfield)
Use:Public/Civil, International (customs port of entry)
Latitude:3447'14"N (34.787150)
Longitude:155'26"W (-1.923985)
Datum:WGS 1984
Elevation:1535 ft (468 m)
Variation:0.47W (WMM2015 magnetic declination)
0.11 annual change
Runways:1
Longest:9843 × 148 ft (3000 × 45 m), paved

Time
Time Zone:UTC+0 (DST+1)
Local Time:

Weather
METAR:GMFO 180600Z 00000KT CAVOK 10/09 Q1015 NOSIG
TAF:GMFO 180500Z 1806/1912 24004KT CAVOK
TEMPO 1812/1818 36014KT

Related Locations
Nearby:
Farthest:NZOX: 12263 mi / 19735 km
Okiwi Station, NZ

Find:

   beyond  
but within

Other Information
Maps:
NOTAMs:
Links:
Sources:

  
flag of Morocco   

Sectional Chart

Flight Planning
at skyvector.com

Satellite Image

Google Maps Satellite View

 

Copyright © 2004-2015 Karl L. Swartz. All rights reserved.
The Great Circle Mapper name and logo are trademarks of the Great Circle Mapper.
All other trademarks mentioned herein belong to their respective owners.
Please see credits for attibutions and further copyright information.

  Follow gcmap on Facebook Follow gcmap on Twitter Follow gcmap on Google+

hCard Microformat

Geo Microformat